Location: Spor
(46.2167°N, 11.0500°E)
Time: 20:25:52
(UTC+00:00)

Cosmos 2322 - Pass Details

Date: 07 June 2020
Orbit: 840 x 855 km, 71.0° (Epoch: 13 July)

Event Time Altitude Azimuth Distance (km) Brightness Sun altitude
Exits shadow 02:43:44 - 207° (SSW) 2,860 5.9 -6.4°
Reaches altitude 10° 02:44:45 10° 207° (SSW) 2,473 5.5 -6.2°
Maximum altitude 02:50:27 84° 296° (WNW) 864 3.8 -5.5°
Drops below altitude 10° 02:56:13 10° 26° (NNE) 2,496 7.4 -4.8°
Sets 02:58:41 0° 27° (NNE) 3,436 8.3 -4.4°
